Malaga, Spain

9:29 AM CEST on March 29, 2017 (GMT +0200)
Malaga

Weather History for LEMG - September, 2013

Change the Weather History Date:

Friday, September 27, 2013

  Actual Average Record
Temperature  
Mean Temperature 74 °F -  
Max Temperature 83 °F 73 °F 89 °F (2007)
Min Temperature 64 °F 58 °F 55 °F (1999)
Cooling Degree Days 8    
Growing Degree Days 24 (Base 50)    
Moisture  
Dew Point 63 °F    
Average Humidity 72    
Maximum Humidity 88    
Minimum Humidity 51    
Precipitation  
Precipitation 0.00 in 0.07 in - ()
Sea Level Pressure  
Sea Level Pressure 29.92 in    
Wind  
Wind Speed 3 mph ()    
Max Wind Speed 10 mph    
Max Gust Speed -    
Visibility 6.7 miles    
Events      
Averages and records for this station are not official NWS values.
T = Trace of Precipitation, MM = Missing Value Source: Averaged Metar Reports

Daily Weather History Graph

Daily Weather History Graph

Search for Another Location

Airport or City:

Trip Planner

Search our weather history database for the weather conditions in past years. The results will help you decide how hot, cold, wet, or windy it might be!

Date:

Astronomy

Sep. 27, 2013 Rise Set
Actual Time 8:09 AM CEST 8:07 PM CEST
Civil Twilight 7:44 AM CEST 8:33 PM CEST
Nautical Twilight 7:14 AM CEST 9:02 PM CEST
Astronomical Twilight 6:43 AM CEST 9:33 PM CEST
Moon 1:02 AM CEST (9/27) 3:27 PM CEST (9/27)
Length of Visible Light 12h 48m
Length of Day
11h 57m
Waning Gibbous, 48% of the Moon is Illuminated
Sep 27
Waning Gibbous
Oct 5
New
Oct 12
First Quarter
Oct 19
Full
Oct 27
Last Quarter

Hourly Weather History & Observations

Time (CEST) Temp. Heat Index Dew Point Humidity Pressure Visibility Wind Dir Wind Speed Gust Speed Precip Events Conditions
12:00 AM 71.6 °F - 66.2 °F 83% 29.95 in - Calm Calm - N/A   Clear
12:30 AM 69.8 °F - 66.2 °F 88% 29.95 in - Variable 2.3 mph - N/A   Clear
1:00 AM 69.8 °F - 64.4 °F 83% 29.95 in - Variable 1.2 mph - N/A   Clear
1:30 AM 69.8 °F - 64.4 °F 83% 29.95 in - Calm Calm - N/A   Clear
2:00 AM 66.2 °F - 62.6 °F 88% 29.95 in - WNW 2.3 mph - N/A   Clear
2:30 AM 68.0 °F - 60.8 °F 78% 29.95 in - WNW 3.5 mph - N/A   Clear
3:00 AM 68.0 °F - 60.8 °F 78% 29.95 in - Calm Calm - N/A   Clear
3:30 AM 66.2 °F - 59.0 °F 78% 29.95 in - NW 1.2 mph - N/A   Clear
4:00 AM 66.2 °F - 60.8 °F 83% 29.95 in - WNW 4.6 mph - N/A   Clear
4:30 AM 66.2 °F - 60.8 °F 83% 29.95 in - WNW 5.8 mph - N/A   Clear
5:00 AM 68.0 °F - 60.8 °F 78% 29.95 in - WNW 6.9 mph - N/A   Clear
5:30 AM 66.2 °F - 60.8 °F 83% 29.92 in - WNW 5.8 mph - N/A   Clear
6:00 AM 66.2 °F - 59.0 °F 78% 29.92 in - WNW 10.4 mph - N/A   Clear
6:30 AM 64.4 °F - 59.0 °F 83% 29.92 in 6.2 mi WNW 5.8 mph - N/A   Partly Cloudy
7:00 AM 64.4 °F - 59.0 °F 83% 29.92 in 6.2 mi WNW 2.3 mph - N/A   Partly Cloudy
7:30 AM 64.4 °F - 59.0 °F 83% 29.92 in 6.2 mi WNW 3.5 mph - N/A   Partly Cloudy
8:00 AM 65 °F - 58 °F 72% 29.93 in 6 mi WNW 4.6 mph - -   Scattered Clouds
8:00 AM 64.4 °F - 57.2 °F 77% 29.92 in 6.2 mi WNW 3.5 mph - N/A   Partly Cloudy
8:30 AM 64.4 °F - 59.0 °F 83% 29.92 in 6.2 mi West 6.9 mph - N/A   Partly Cloudy
9:00 AM 66.2 °F - 59.0 °F 78% 29.95 in 6.2 mi WNW 4.6 mph - N/A   Partly Cloudy
9:30 AM 68.0 °F - 60.8 °F 78% 29.95 in 6.2 mi WNW 4.6 mph - N/A   Partly Cloudy
10:00 AM 69.8 °F - 60.8 °F 73% 29.95 in 6.2 mi WNW 3.5 mph - N/A   Partly Cloudy
11:00 AM 77.0 °F - 64.4 °F 65% 29.95 in - SE 2.3 mph - N/A   Clear
11:30 AM 78.8 °F - 60.8 °F 54% 29.95 in - ESE 6.9 mph - N/A   Clear
12:00 PM 75.2 °F - 64.4 °F 69% 29.95 in 6.2 mi SE 8.1 mph - N/A   Scattered Clouds
12:30 PM 75.2 °F - 66.2 °F 73% 29.95 in 6.2 mi ESE 5.8 mph - N/A   Scattered Clouds
1:00 PM 75.2 °F - 66.2 °F 73% 29.95 in 6.2 mi SE 4.6 mph - N/A   Partly Cloudy
1:30 PM 77.0 °F - 66.2 °F 69% 29.92 in 6.2 mi ENE 1.2 mph - N/A   Partly Cloudy
2:00 PM 80 °F - 67 °F 57% 29.94 in 9 mi ENE 3.5 mph - -   Scattered Clouds
2:00 PM 77.0 °F - 66.2 °F 69% 29.92 in 6.2 mi ENE 3.5 mph - N/A   Partly Cloudy
2:30 PM 77.0 °F - 66.2 °F 69% 29.92 in 6.2 mi ENE 9.2 mph - N/A   Partly Cloudy
3:00 PM 78.8 °F - 62.6 °F 57% 29.92 in - East 6.9 mph - N/A   Clear
3:30 PM 82.4 °F 83.4 °F 62.6 °F 51% 29.89 in - SE 8.1 mph - N/A   Clear
4:00 PM 80.6 °F 81.8 °F 62.6 °F 54% 29.89 in - SSE 9.2 mph - N/A   Clear
4:30 PM 77.0 °F - 64.4 °F 65% 29.89 in 6.2 mi SSE 8.1 mph - N/A   Partly Cloudy
5:00 PM 75.2 °F - 64.4 °F 69% 29.89 in 6.2 mi South 8.1 mph - N/A   Partly Cloudy
5:30 PM 75.2 °F - 64.4 °F 69% 29.89 in 6.2 mi ESE 4.6 mph - N/A   Partly Cloudy
6:00 PM 75.2 °F - 64.4 °F 69% 29.89 in 6.2 mi East 4.6 mph - N/A   Partly Cloudy
6:30 PM 77.0 °F - 64.4 °F 65% 29.86 in 6.2 mi Variable 2.3 mph - N/A   Partly Cloudy
7:00 PM 77.0 °F - 62.6 °F 61% 29.89 in 6.2 mi NNE 4.6 mph - N/A   Partly Cloudy
7:30 PM 75.2 °F - 66.2 °F 73% 29.89 in 6.2 mi NNE 8.1 mph - N/A   Partly Cloudy
8:00 PM 76 °F - 65 °F 62% 29.89 in 19 mi NNE 5.8 mph - -   Scattered Clouds
8:00 PM 75.2 °F - 64.4 °F 69% 29.89 in 6.2 mi NNE 5.8 mph - N/A   Partly Cloudy
8:30 PM 75.2 °F - 64.4 °F 69% 29.89 in 6.2 mi East 3.5 mph - N/A   Partly Cloudy
9:00 PM 75.2 °F - 64.4 °F 69% 29.89 in 6.2 mi Variable 2.3 mph - N/A   Partly Cloudy
9:30 PM 73.4 °F - 64.4 °F 73% 29.89 in 6.2 mi Variable 1.2 mph - N/A   Partly Cloudy
10:00 PM 75.2 °F - 64.4 °F 69% 29.89 in 6.2 mi Variable 1.2 mph - N/A   Partly Cloudy
10:30 PM 75.2 °F - 64.4 °F 69% 29.92 in 6.2 mi Calm Calm - N/A   Partly Cloudy
11:00 PM 75.2 °F - 64.4 °F 69% 29.92 in 6.2 mi ESE 3.5 mph - N/A   Mostly Cloudy
11:30 PM 75.2 °F - 62.6 °F 65% 29.92 in 6.2 mi East 1.2 mph - N/A   Mostly Cloudy